| time (UTC) | temp F | wind direction | speed knots | gust knots | rain 1hr in | rain 24hr in | rain mn in | humidity % | barometer mb |
| 20260504214547 | 71 | 173 | 1.7 | 6.1 | 0.00 | 0.00 | 0.00 | 44 | 1016.9 |
| 20260504213045 | 70 | 124 | 2.6 | 6.1 | 0.00 | 0.00 | 0.00 | 44 | 1017.1 |
| 20260504211548 | 70 | 59 | 1.7 | 7.8 | 0.00 | 0.00 | 0.00 | 46 | 1017.0 |
| 20260504210050 | 70 | 57 | 1.7 | 5.2 | 0.00 | 0.00 | 0.00 | 46 | 1017.0 |
| 20260504204539 | 71 | 31 | 2.6 | 11.3 | 0.00 | 0.00 | 0.00 | 44 | 1017.0 |
| 20260504203050 | 71 | 245 | 1.7 | 6.1 | 0.00 | 0.00 | 0.00 | 44 | 1017.1 |
| 20260504201949 | 71 | 86 | 1.7 | 5.2 | 0.00 | 0.00 | 0.00 | 44 | 1017.0 |
| 20260504200049 | 70 | 56 | 1.7 | 5.2 | 0.00 | 0.00 | 0.00 | 45 | 1016.9 |
| 20260504194552 | 71 | 75 | 2.6 | 4.3 | 0.00 | 0.00 | 0.00 | 43 | 1017.0 |
| 20260504193049 | 71 | 121 | 1.7 | 4.3 | 0.00 | 0.00 | 0.00 | 45 | 1017.0 |
| 20260504191615 | 71 | 22 | 0.9 | 5.2 | 0.00 | 0.00 | 0.00 | 42 | 1017.2 |
| 20260504190110 | 71 | 56 | 0.9 | 5.2 | 0.00 | 0.00 | 0.00 | 46 | 1017.1 |
| 20260504184610 | 70 | 64 | 1.7 | 4.3 | 0.00 | 0.00 | 0.00 | 44 | 1017.1 |
| 20260504183056 | 70 | 153 | 1.7 | 4.3 | 0.00 | 0.00 | 0.00 | 44 | 1017.0 |
| 20260504181612 | 69 | 79 | 0.9 | 7.0 | 0.00 | 0.00 | 0.00 | 44 | 1017.0 |
| 20260504180615 | 68 | 107 | 1.7 | 5.2 | 0.00 | 0.00 | 0.00 | 45 | 1017.0 |
| 20260504174552 | 69 | 68 | 1.7 | 5.2 | 0.00 | 0.00 | 0.00 | 43 | 1016.9 |
| 20260504173104 | 68 | 127 | 1.7 | 3.5 | 0.00 | 0.00 | 0.00 | 43 | 1016.7 |
| 20260504171558 | 67 | 165 | 0.9 | 4.3 | 0.00 | 0.00 | 0.00 | 45 | 1016.7 |
| 20260504160111 | 58 | 13 | 0.0 | 0.9 | 0.00 | 0.00 | 0.00 | 64 | 1016.5 |
| 20260504081555 | 48 | 5 | 0.0 | 1.7 | 0.00 | 0.00 | 0.00 | 78 | 1017.1 |
| 20260504060108 | 50 | 5 | 0.0 | 1.7 | 0.00 | 0.00 | 0.00 | 74 | 1017.2 |
| 20260504050115 | 51 | 5 | 0.0 | 0.9 | 0.00 | 0.00 | 0.00 | 70 | 1017.3 |
| 20260504044542 | 52 | 5 | 0.0 | 0.9 | 0.00 | 0.00 | 0.00 | 70 | 1017.6 |
| 20260504043050 | 53 | 5 | 0.0 | 1.7 | 0.00 | 0.00 | 0.00 | 68 | 1017.4 |
| 20260504041549 | 53 | 5 | 0.0 | 1.7 | 0.00 | 0.00 | 0.00 | 66 | 1017.4 |
| 20260504040116 | 54 | 5 | 0.0 | 1.7 | 0.00 | 0.00 | 0.00 | 63 | 1017.6 |
| 20260504034604 | 55 | 5 | 0.0 | 1.7 | 0.00 | 0.00 | 0.00 | 63 | 1017.2 |
| 20260504033058 | 56 | 9 | 0.9 | 1.7 | 0.00 | 0.00 | 0.00 | 59 | 1017.1 |
| 20260504031624 | 57 | 352 | 0.9 | 1.7 | 0.00 | 0.00 | 0.00 | 58 | 1017.0 |
| 20260504030116 | 58 | 333 | 0.9 | 2.6 | 0.00 | 0.00 | 0.00 | 54 | 1017.2 |
| 20260504024554 | 58 | 17 | 0.9 | 1.7 | 0.00 | 0.00 | 0.00 | 54 | 1017.0 |
| 20260504023108 | 59 | 352 | 0.0 | 1.7 | 0.00 | 0.00 | 0.00 | 51 | 1017.1 |
| 20260504021605 | 61 | 331 | 0.0 | 1.7 | 0.00 | 0.00 | 0.00 | 47 | 1017.3 |
| 20260504020059 | 62 | 323 | 0.0 | 1.7 | 0.00 | 0.00 | 0.00 | 41 | 1017.3 |
| 20260504014608 | 64 | 313 | 0.0 | 2.6 | 0.00 | 0.00 | 0.00 | 37 | 1017.2 |
| 20260504013056 | 64 | 340 | 0.0 | 4.3 | 0.00 | 0.00 | 0.00 | 34 | 1017.4 |
| 20260504011608 | 65 | 55 | 0.9 | 4.3 | 0.00 | 0.00 | 0.00 | 37 | 1017.6 |
| 20260504010112 | 66 | 62 | 0.9 | 4.3 | 0.00 | 0.00 | 0.00 | 33 | 1017.7 |
| 20260504004612 | 67 | 54 | 0.9 | 4.3 | 0.00 | 0.00 | 0.00 | 35 | 1017.9 |
| 20260504003104 | 68 | 245 | 1.7 | 6.1 | 0.00 | 0.00 | 0.00 | 34 | 1018.0 |
| 20260504001606 | 69 | 26 | 0.9 | 3.5 | 0.00 | 0.00 | 0.00 | 34 | 1018.2 |
| 20260504000139 | 70 | 130 | 1.7 | 6.1 | 0.00 | 0.00 | 0.00 | 36 | 1018.1 |
| 20260503234611 | 71 | 20 | 1.7 | 5.2 | 0.00 | 0.00 | 0.00 | 38 | 1018.3 |
| 20260503233057 | 72 | 63 | 0.9 | 6.1 | 0.00 | 0.00 | 0.00 | 36 | 1018.3 |
| 20260503231557 | 73 | 11 | 1.7 | 7.0 | 0.00 | 0.00 | 0.00 | 34 | 1018.3 |
| 20260503230100 | 73 | 126 | 0.9 | 5.2 | 0.00 | 0.00 | 0.00 | 33 | 1018.5 |
| 20260503224556 | 73 | 62 | 1.7 | 8.7 | 0.00 | 0.00 | 0.00 | 33 | 1018.7 |
| 20260503223056 | 73 | 32 | 2.6 | 7.0 | 0.00 | 0.00 | 0.00 | 35 | 1018.9 |
| 20260503221552 | 74 | 53 | 1.7 | 6.1 | 0.00 | 0.00 | 0.00 | 34 | 1019.1 |
| 20260503220055 | 74 | 244 | 2.6 | 7.8 | 0.00 | 0.00 | 0.00 | 31 | 1019.2 |